Weather History for LIMH - May, 2013

Change the Weather History Date:

Wednesday, May 15, 2013

  Actual Average Record
Temperature  
Mean Temperature 22 °F -  
Max Temperature 25 °F 32 °F 35 °F (1999)
Min Temperature 20 °F 21 °F 10 °F (2007)
Degree Days  
Heating Degree Days 42    
Moisture  
Dew Point 19 °F    
Average Humidity 83    
Maximum Humidity 93    
Minimum Humidity 68    
Precipitation  
Precipitation 0.08 in - - ()
Sea Level Pressure  
Sea Level Pressure 29.81 in    
Wind  
Wind Speed 18 mph ()    
Max Wind Speed 29 mph    
Max Gust Speed -    
Visibility 0.1 miles    
Events Fog , Snow    
Averages and records for this station are not official NWS values.
T = Trace of Precipitation, MM = Missing Value Source: Averaged Metar Reports

Daily Weather History Graph

Daily Weather History Graph

Search for Another Location

Airport or City:

Trip Planner

Search our weather history database for the weather conditions in past years. The results will help you decide how hot, cold, wet, or windy it might be!

Date:

Astronomy

May. 15, 2013 Rise Set
Actual Time 5:57 AM CEST 8:54 PM CEST
Civil Twilight 5:22 AM CEST 9:29 PM CEST
Nautical Twilight 4:37 AM CEST 10:14 PM CEST
Astronomical Twilight 3:44 AM CEST 11:08 PM CEST
Moon 10:19 AM CEST (5/15) 12:29 AM CEST (5/15)
Length of Visible Light 16h 07m
Length of Day
14h 57m
Waxing Crescent, 24% of the Moon is Illuminated
May 15
Waxing Crescent
May 18
First Quarter
May 25
Full
May 31
Last Quarter
Jun 8
New

Hourly Weather History & Observations

Time (CEST) Temp. Windchill Dew Point Humidity Pressure Visibility Wind Dir Wind Speed Gust Speed Precip Events Conditions
12:55 AM 23.0 °F 8.0 °F 19.4 °F 86% 29.92 in 0.1 mi SE 20.7 mph - N/A Fog , Snow Light Snow
1:55 AM 23.0 °F 5.7 °F 21.2 °F 93% 29.92 in 0.1 mi SE 28.8 mph - N/A Fog , Snow Light Snow
2:00 AM 23 °F - 21 °F 89%  in 0 mi SE 28.8 mph - - Snow Light Snow
2:55 AM 23.0 °F 7.2 °F 17.6 °F 80% 29.89 in 0.1 mi South 23.0 mph - N/A Fog , Snow Light Snow
3:55 AM 21.2 °F 4.5 °F 17.6 °F 86% 29.86 in 0.5 mi South 24.2 mph - N/A Fog , Snow Light Snow
4:55 AM 21.2 °F 4.9 °F 15.8 °F 80% 29.86 in 0.5 mi SSE 23.0 mph - N/A Fog , Snow Light Snow
5:00 AM 21 °F - 17 °F 75%  in 0 mi SSE 23.0 mph - - Snow Light Snow
5:55 AM 21.2 °F 9.5 °F 17.6 °F 86% 29.83 in 0.5 mi South 11.5 mph - N/A Fog , Snow Light Snow
6:55 AM 21.2 °F 4.5 °F 17.6 °F 86% 29.83 in 0.1 mi SE 24.2 mph - N/A Fog , Snow Light Snow
7:55 AM 21.2 °F 6.8 °F 17.6 °F 86% 29.83 in 0.1 mi South 17.3 mph - N/A Fog , Snow Light Snow
8:00 AM 22 °F - 18 °F 77%  in 0 mi South 17.3 mph - - Snow Light Snow
8:55 AM 23.0 °F 9.2 °F 19.4 °F 86% 29.80 in 0.1 mi South 17.3 mph - N/A Fog , Snow Light Snow
9:55 AM 23.0 °F 6.6 °F 17.6 °F 80% 29.80 in 0.1 mi SE 25.3 mph - N/A Fog , Snow Light Snow
10:55 AM 21.2 °F 6.8 °F 17.6 °F 86% 29.80 in 0.1 mi SSE 17.3 mph - N/A Fog , Snow Light Snow
11:00 AM 22 °F - 17 °F 74%  in 0 mi SSE 17.3 mph - - Snow Light Snow
11:55 AM 24.8 °F 12.9 °F 19.4 °F 80% 29.80 in 0.1 mi South 13.8 mph - N/A Fog , Snow Light Snow
12:55 PM 24.8 °F 12.9 °F 19.4 °F 80% 29.83 in 0.1 mi South 13.8 mph - N/A Fog , Snow Light Snow
1:55 PM 24.8 °F 10.3 °F 19.4 °F 80% 29.80 in 0.1 mi SE 20.7 mph - N/A Fog , Snow Light Snow
2:00 PM 25 °F - 19 °F 68%  in 0 mi SE 20.7 mph - - Snow Light Snow
2:55 PM 24.8 °F 15.3 °F 19.4 °F 80% 29.80 in 0.1 mi SSW 9.2 mph - N/A Fog , Snow Light Snow
3:55 PM 26.6 °F 15.2 °F 19.4 °F 74% 29.83 in 0.1 mi SE 13.8 mph - N/A Fog , Snow Light Snow
4:55 PM 23.0 °F 10.1 °F 17.6 °F 80% 29.80 in 0.1 mi South 15.0 mph - N/A Fog , Snow Light Snow
5:00 PM 23 °F - 18 °F 72%  in 0 mi South 15.0 mph - - Snow Light Snow
5:55 PM 23.0 °F 12.4 °F 17.6 °F 80% 29.80 in 0.1 mi South 10.4 mph - N/A Fog , Snow Light Snow
6:55 PM 23.0 °F 13.9 °F 17.6 °F 80% 29.80 in 0.1 mi SSW 8.1 mph - N/A Fog , Snow Light Snow
7:55 PM 21.2 °F 5.6 °F 19.4 °F 93% 29.77 in 0.1 mi South 20.7 mph - N/A Fog , Snow Light Snow
8:00 PM 22 °F - 19 °F 83%  in 0 mi South 20.7 mph - - Snow Light Snow
8:55 PM 21.2 °F 6.0 °F 19.4 °F 93% 29.74 in 0.1 mi South 19.6 mph - N/A Fog , Snow Light Snow
9:55 PM 21.2 °F 4.5 °F 19.4 °F 93% 29.74 in 0.1 mi SE 24.2 mph - N/A Fog , Snow Light Snow
10:55 PM 21.2 °F 7.8 °F 19.4 °F 93% 29.74 in 0.1 mi SSE 15.0 mph - N/A Fog , Snow Light Snow
11:55 PM 23.0 °F 8.0 °F 21.2 °F 93% 29.74 in 0.1 mi SE 20.7 mph - N/A Fog , Snow Light Snow